Reflectivity
25 12 6 29 30 31 19 23 19 13 16 13 8 12 10 16 20 16 8 2 -10 -5 2 1 -19 -14 -7 -20 -20 -14 -20 -20 -20 -20 -20 -20 -20 -20 -17 -7 9 6 15 -18 8 11 7 14 16 -8 -20 -20 -20 -20
25 22 8 20 25 31 19 11 5 3 20 11 15 14 20 9 -17 -18 -19 -15 -15 -8 -20 -20 -20 -20 -20 -20 -20 -20 -20 -20 -20 -20 -20 -20 -17 1 5 -20 -19 -18 -18 6 -20 -20 -20 -20 -20 -20 -20 -20 -20 -20
19 18 1 -1 20 23 11 9 5 21 19 8 -12 -20 -20 -20 -20 -20 -20 -20 -20 -20 -20 -20 -20 -20 -20 -20 -20 -20 -20 -20 -20 -20 -20 -20 -20 -20 -20 -20 -20 -20 -20 -20 -20 -20 -20 -20 -20 -20 -20 -20 -20 -20
30 23 20 1 3 14 15 11 0 2 -18 -16 -20 -20 -20 -20 -20 -20 -20 -20 -20 -20 -20 -20 -20 -20 -20 -20 -20 -20 -20 -20 -20 -20 -20 -20 -20 -20 -20 -20 -20 -20 -20 -20 -20 -20 -20 -4 -17 -20 -20 -20 -18 -3
11 8 10 9 10 12 8 2 0 7 8 -6 -20 -20 -20 -20 -20 -20 -20 -20 -20 -20 -20 -20 -20 -20 -20 -20 -20 -20 -20 -20 -20 -20 -20 -20 -20 -17 -20 -20 -20 -20 3 2 -20 -20 -20 3 7 -20 1 14 22 -15
11 4 3 -7 1 9 21 5 -6 -20 -20 -20 -20 -20 -20 -20 -20 -20 -20 -20 -20 -20 -20 -20 -20 -20 -20 -20 -20 -20 -20 -20 -20 -20 -20 -20 -20 -15 -20 -20 -20 -20 -20 -20 11 -20 -20 -20 5 -20 -20 -8 -20 -20
25 14 1 -7 5 7 -2 -18 -20 -20 -20 -20 -20 -20 -20 -20 -20 -20 -20 -20 -20 -20 -20 -20 -20 -20 -20 -20 -20 -20 -20 -20 -20 -20 -20 -20 -20 -15 -20 -20 -20 -20 -20 -20 -20 -20 -20 -20 16 -14 -20 -20 -6 -20
-14 -6 -1 -13 -20 -19 -20 -20 -20 -20 -20 -20 -20 -20 -20 -20 -20 -20 -20 -20 -20 -20 -20 -20 -20 -20 -20 -20 -20 -20 -20 -20 -20 -20 -20 -20 -20 -20 -19 -20 -20 -20 -20 -20 -20 -20 -20 5 -20 -20 -20 -17 -19 -8
-20 -19 -17 -20 -20 -20 -20 -17 -18 -20 -20 -20 -20 -20 -20 -20 -20 -20 -20 -20 -20 -20 -20 -20 -20 -13 -20 -20 -20 -20 -20 -20 -20 -20 -20 -20 -20 -19 -20 -20 -20 -20 -20 -20 -20 -15 -20 -20 -20 -20 -20 -20 -20 -20
-20 -18 -17 -16 -13 -14 -20 -20 -20 -20 -20 -20 -20 -20 -20 -20 -20 -20 -20 -20 -20 -20 -20 -20 -20 -20 -20 -20 -20 -20 -20 -20 -20 -20 -20 -20 -20 -20 -20 -20 -0 -20 -20 -20 -20 -20 -20 -20 -20 -20 -20 -20 -20 -20
-20 -20 -20 -20 -20 -20 -20 -20 -20 -20 -20 -20 -20 -20 -20 -20 -20 -20 -20 -20 -20 -20 -20 -20 -20 -20 -20 -20 -20 -20 -20 -20 -19 -20 -20 -20 -20 -20 -20 -20 -20 -20 -20 -20 -20 -20 -20 -20 -20 -20 -20 -20 -20 -20
-20 -20 -20 -20 -20 -20 -20 -20 -20 -20 -20 -20 -20 -20 -20 -20 -20 -20 -20 -20 -20 -20 -18 -14 -20 -20 -20 -20 -20 -20 -20 -20 -20 -20 -16 -20 -20 -20 -20 -20 -17 -20 -20 -20 -20 -20 -20 -20 -20 -20 -20 -20 -20 -20
-20 -20 -20 -20 -20 -20 -20 -20 -20 -20 -20 -20 -20 -20 -20 -20 -20 -20 -20 -20 -10 -20 -20 -20 -20 -20 -20 -20 4 -20 -15 -20 -20 -14 -20 4 37 37 35 30 31 14 5 -20 4 -15 -19 -11 -20 -20 -20 -20 -20 -20
-20 -20 -20 -20 -20 -20 -20 -20 -20 -20 -20 -20 -20 -20 -20 -20 -20 -19 6 -19 -20 -20 -20 -20 -20 -20 -20 -20 -20 -8 -20 -19 -17 6 -0 10 10 22 20 18 20 12 -11 -20 -20 -20 -20 -20 -20 -20 -20 -20 -20 -20
-20 -20 -20 -20 -20 -20 -20 -20 -20 -20 -10 -20 -20 -20 -20 -20 -20 -20 -20 -20 -20 -20 -20 -20 -20 -20 -20 -20 -20 -20 -14 -20 6 14 9 18 -2 12 27 0 3 6 6 4 1 -6 -17 -20 -20 -20 -20 -20 -20 -20
-20 -20 -20 -20 -20 -20 -20 -20 -20 -20 -7 -18 -20 -20 -20 -20 -20 -20 -20 -20 -20 -20 -20 -20 -20 -20 -20 -20 -11 -20 -0 12 12 9 0 -6 3 -4 -15 -20 -20 -20 -20 -20 -20 -20 -20 -20 -20 -20 -20 -20 -20 -20
-20 -20 -20 -20 -20 -20 -20 -20 3 -6 -20 -20 -18 -20 -20 -20 -20 -20 -20 -20 -20 -20 -4 -20 -18 -20 -20 -20 10 -20 -17 -20 -20 -20 -20 -20 -20 -20 -20 -20 -20 -20 -20 -20 -20 -20 -20 -20 -20 -20 -20 -19 -20 -18
-7 -20 -20 -20 -20 -20 -4 -20 -9 -12 -20 -20 -20 -20 -20 -20 -20 -20 -20 -20 -20 -20 -19 9 -16 7 4 7 -19 -20 -18 -20 -14 3 9 -16 -20 -20 -20 -20 -20 -20 -20 -20 -20 -20 -20 -16 -20 -20 -20 -16 -20 -19
-20 -20 -20 -20 -20 -20 0 -20 -20 -14 -20 -20 -20 -20 -20 -20 -20 -20 -20 -20 -20 -20 -20 -20 -13 -20 -20 -20 -20 -20 -20 -20 -20 -20 -20 -12 -19 -6 -16 -20 -20 -20 -20 -20 -20 -20 -20 -9 -3 3 -17 -20 -19 -20
-20 -20 -20 -20 -20 -20 -20 -19 -20 -20 -20 -20 -20 -20 -20 -20 -20 -20 -20 -20 -20 -20 -14 -8 -20 -20 -20 -20 -20 -20 -20 -20 -20 -20 -20 -20 -18 4 1 4 -8 -20 -20 -10 -17 -20 -20 -20 -16 -15 14 15 -20 -20
-20 -20 -20 -20 -20 -20 -20 -17 -20 -20 -20 -20 -20 -20 -20 -20 -20 -20 -20 -20 -20 1 -20 -20 -20 -20 -20 -20 -20 -20 -20 -20 -20 -20 -20 -20 -20 -20 -20 -20 -20 -15 -3 -20 -12 -20 -20 -20 1 -20 -20 -20 -20 -20
-20 -20 -20 -20 -20 -20 -20 -20 -20 -20 -20 -20 -20 -20 -20 -20 -20 -20 -20 -20 -20 -20 -20 -20 -20 -20 -20 -20 -20 -20 -20 -20 -20 -20 -20 -20 -20 -20 -20 -20 -20 -20 -20 -20 -20 -20 -20 -20 -20 -20 -20 -20 -20 -20
-20 -20 -20 -20 -18 -15 -20 -20 -20 -20 -19 -20 -20 -20 -20 -20 -20 -20 -20 -20 -20 -20 -20 -20 -20 -20 -20 -20 -20 -20 -20 -11 -15 -20 -20 -20 -20 -11 -20 -20 -20 -20 -20 -20 -20 -20 -20 -20 -20 -20 -20 -20 -20 -20
-20 -9 -1 -6 -8 -20 -19 -15 -10 -20 -20 -20 -20 -20 -20 -20 -20 -20 -20 -20 -20 -20 -20 -20 -20 -20 -20 -20 -20 -20 -20 -20 -20 -20 -20 -20 -20 -20 -20 -20 -20 -20 -20 -20 -20 -20 -20 -20 -20 -20 -20 -20 -20 -20
-5 -20 -20 -10 4 -7 -19 -6 -20 -20 -20 -20 -20 -20 -20 -20 -20 -20 -20 -20 -20 -20 -20 -20 -20 -20 -20 -20 -20 -20 -20 -20 -20 -20 -20 -20 -20 -20 -20 -20 -20 -20 -10 -20 -20 -20 -20 -20 -20 -20 -20 -20 -20 -20
-18 -20 -20 -20 -20 -20 -8 -20 -20 -20 -20 -20 -20 -20 -20 -20 -20 -20 -20 -20 -20 -20 -20 -20 -20 -20 -20 -20 -20 -20 -20 -20 -20 -20 -20 -20 -20 -20 -20 -19 3 -9 -11 -20 -20 -20 -20 -20 -20 -20 -20 -20 -20 -20
-20 -20 -20 -20 -20 -20 -20 -20 -20 -20 -20 -20 -20 -20 -20 -20 -20 -20 -20 -20 -20 -20 -20 -20 -20 -20 -20 -20 -20 -20 -20 -20 -20 -20 -20 -20 -20 -12 -20 -20 -20 -20 -20 -20 -20 -20 -3 -20 -13 -20 -19 -20 -20 -20
-20 -20 -20 -20 -20 -20 -20 -20 -20 -20 -20 -20 -20 -20 -20 -20 -20 -20 -20 -20 -20 -20 -20 -20 -20 -20 -20 -20 -20 -20 -20 -20 -20 -20 -20 -20 -20 -20 -20 -20 -20 -20 -20 -20 -20 -20 -20 -20 -2 -6 -16 -20 -20 -20
-12 -20 -20 -20 -20 -20 -20 -20 -20 -20 -20 -20 -20 -20 -20 -20 -20 -20 -20 -20 -20 -20 -20 -20 -20 -20 -20 -20 -20 -20 -20 -20 -20 -20 -20 -20 -20 -20 -20 -20 -19 -20 -20 -20 -20 -16 4 -2 -8 -20 -20 -20 -20 -20
-20 -20 -20 -20 -20 -20 -20 -20 -20 -20 -20 -20 -20 -20 -20 -20 -20 -20 -20 -20 -20 -20 -20 -20 -20 -20 -20 -20 -20 -20 -20 -20 -20 -20 -20 -20 -20 -20 -20 -20 -20 -20 -20 -20 -0 -20 -20 -20 -20 -20 -20 -20 -20 -20
-15 -20 2 -5 -20 -20 -20 -20 -20 -20 -20 -20 -20 -20 -20 -20 -20 -20 -20 -20 -20 -20 -20 -20 -20 -20 -20 -20 -20 -20 -20 -20 -20 -20 -20 -20 -20 -20 -20 -20 -20 -20 -17 -18 -20 -20 -20 -13 -20 -20 -20 -20 -20 -20
-12 4 -5 -17 -19 -20 -20 -20 -20 -20 -20 -20 -20 -20 -20 -20 -20 -20 -20 -20 -20 -20 -20 -20 -20 -20 -20 -20 -20 -20 -20 -20 -20 -20 -20 -20 -20 -20 -20 -20 -20 -20 -20 -20 -20 -20 -20 -20 -20 -20 -20 -20 -20 -20
-6 -20 -0 -20 -20 -20 -20 -20 -20 -20 -20 -20 -20 -20 -20 -20 -20 -20 -20 -20 -20 -20 -20 -20 -20 -20 -20 -20 -20 -20 -20 -20 -20 -20 -20 -20 -20 -20 -20 -20 -20 -20 -20 -20 -20 -20 -20 -20 -20 -20 -20 -20 -20 -20
Wind_Speed
31 34 35 36 32 33 29 27 26 25 22 20 20 18 14 13 9 4 2 4 3 4 3 7 7 5 4 2 4 5 5 3 3 3 2 4 3 3 3 5 5 3 3 2 2 2 5 10 7 7 8 3 3 4
37 36 37 38 35 32 33 29 28 24 23 20 17 16 15 12 7 5 4 2 2 5 4 4 5 7 6 5 6 1 6 4 5 3 0 1 3 1 5 4 5 2 1 2 6 5 8 2 6 3 3 4 3 3
36 36 37 36 35 32 31 29 27 23 20 18 18 16 15 14 12 7 3 1 4 4 3 5 4 3 6 5 3 5 2 2 2 4 4 4 1 1 2 5 5 4 4 2 3 3 6 7 4 5 3 2 6 6
37 36 35 35 34 32 29 26 26 22 20 19 18 19 17 12 14 10 4 3 4 3 5 2 0 5 3 4 4 4 3 5 3 3 1 3 2 2 3 6 6 5 4 4 6 6 4 4 4 3 3 7 9 10
36 35 35 33 34 33 29 28 24 22 20 18 20 18 16 14 11 7 6 5 4 4 5 3 6 2 4 2 2 3 3 2 1 1 2 2 2 2 4 3 6 2 2 2 6 5 3 2 7 2 3 5 9 5
35 33 33 33 31 29 28 26 24 20 21 18 16 15 12 9 6 6 6 5 7 3 5 3 1 4 3 2 2 2 2 2 2 3 3 3 3 3 1 4 5 3 5 6 1 2 0 4 8 7 5 4 5 5
32 31 31 28 28 28 25 23 22 20 16 14 15 13 14 17 9 5 4 4 7 4 4 4 2 2 6 5 1 1 2 1 3 3 3 3 3 3 3 9 12 11 13 3 5 3 2 5 3 2 5 5 7 6
30 30 28 27 25 26 24 22 18 16 14 13 12 12 14 19 14 6 4 6 6 2 3 3 2 2 2 2 1 1 1 2 3 3 2 1 2 3 5 7 10 8 3 5 4 1 4 3 2 6 5 6 6 6
29 28 27 25 25 24 22 17 16 14 12 10 7 6 3 4 4 1 5 8 2 4 2 2 3 3 1 2 3 1 2 2 3 3 4 3 3 6 8 9 6 5 4 4 1 4 3 5 4 6 5 3 3 4
27 27 26 24 22 21 16 14 13 9 7 6 2 5 4 1 0 1 3 3 4 3 3 1 1 0 3 2 3 2 2 3 3 6 3 3 6 11 8 6 8 6 6 5 4 3 3 4 3 3 4 5 5 3
25 24 23 21 20 16 13 12 6 7 6 2 3 3 2 3 1 3 1 3 0 2 2 4 3 3 2 2 2 3 3 3 2 5 5 4 4 6 7 10 9 7 6 5 5 4 2 2 4 5 6 2 5 5
24 23 21 20 17 15 13 7 6 2 2 2 5 4 3 1 2 4 1 1 2 3 2 3 3 4 1 2 2 3 3 2 5 3 2 4 3 7 12 11 7 7 5 4 3 4 5 5 5 4 5 5 4 4
22 21 19 17 15 12 9 9 9 6 5 3 4 4 3 2 4 3 3 2 1 1 0 1 2 2 3 3 1 2 2 5 1 1 4 4 7 8 8 8 8 7 4 1 3 5 4 4 6 5 4 4 6 5
19 17 16 14 12 11 10 9 9 5 1 3 2 3 3 1 3 2 2 2 2 4 1 1 1 2 2 1 3 3 5 2 3 2 3 1 2 2 4 4 2 2 5 5 4 4 3 4 3 4 4 5 4 5
15 13 12 9 8 6 5 3 4 1 2 3 2 2 3 3 3 2 2 3 4 3 3 3 2 3 2 0 3 3 3 5 3 2 1 0 3 3 3 2 4 4 4 5 5 5 4 5 3 4 6 6 5 5
8 5 4 10 6 1 3 4 2 1 2 2 1 1 2 2 2 3 3 3 4 3 2 2 1 1 4 3 3 6 4 2 1 1 1 2 6 5 5 4 4 3 4 5 5 5 4 3 4 7 6 7 3 2
2 1 5 6 4 2 0 2 1 2 2 2 1 1 3 1 1 1 2 2 2 3 1 0 1 7 2 2 3 3 1 3 3 2 2 4 4 2 1 2 2 4 4 5 4 5 5 5 5 6 7 6 1 4
1 3 5 5 3 2 1 1 2 2 2 3 1 3 3 3 2 2 2 2 1 2 2 1 3 2 3 3 3 3 3 2 3 2 2 4 4 2 2 1 2 4 5 4 5 5 5 5 5 4 5 3 5 5
5 5 7 7 3 2 2 2 1 1 3 1 1 1 3 3 4 4 4 4 4 3 2 2 4 3 3 2 2 1 2 1 1 2 4 2 3 3 3 4 5 6 6 5 4 4 3 5 5 5 3 4 3 4
4 5 4 5 6 3 2 2 2 1 2 3 2 2 3 3 4 3 4 4 3 3 3 4 4 3 2 2 1 2 0 1 2 2 3 1 2 2 4 5 2 5 5 6 4 5 4 4 3 4 4 3 3 3
2 2 2 2 2 3 2 2 3 4 3 2 3 1 4 2 2 3 3 4 2 4 3 4 1 2 3 2 3 0 1 1 1 0 2 2 3 2 3 3 4 3 3 4 4 4 3 2 2 3 2 2 2 2
2 2 0 2 1 2 1 3 3 4 2 3 3 2 3 2 3 3 3 2 4 5 4 2 3 2 2 1 1 4 3 1 3 3 3 3 2 1 2 1 2 2 2 2 3 3 2 2 2 2 2 3 4 4
2 1 1 2 1 2 5 3 1 3 2 2 2 2 2 2 3 2 1 4 2 1 2 3 3 2 0 4 4 5 5 3 1 2 3 1 1 2 2 2 2 2 3 4 2 3 3 5 5 3 3 4 6 6
1 1 1 2 4 3 1 1 2 3 2 2 2 2 2 1 1 1 4 2 1 2 2 4 2 1 2 3 2 3 3 3 2 1 3 3 2 2 4 3 3 2 1 3 4 4 4 3 5 5 4 4 5 6
1 4 3 4 3 3 3 3 3 2 3 3 2 3 3 1 1 3 4 2 2 2 2 3 2 3 2 2 2 5 4 3 3 2 3 5 3 3 4 4 4 3 1 3 2 3 3 3 3 4 6 5 9 12
4 6 8 6 4 4 4 3 5 5 2 2 3 1 2 1 2 5 3 2 2 3 3 3 3 1 2 4 3 4 2 3 3 2 3 4 2 1 3 3 5 3 7 3 2 3 6 6 6 8 10 10 12 13
5 6 4 4 3 4 2 1 2 3 3 5 3 2 3 2 6 5 1 2 3 1 4 4 4 3 2 2 4 3 3 3 4 1 1 2 3 2 4 5 5 5 5 4 3 3 7 9 9 10 11 11 11 11
5 4 6 5 2 2 4 2 4 5 4 4 3 4 6 7 6 2 2 1 4 4 5 4 4 4 4 4 2 3 3 2 3 2 3 3 3 4 3 2 2 8 4 3 4 4 6 8 9 10 11 12 13 12
4 3 3 3 3 2 4 7 5 4 3 4 5 4 4 1 2 3 2 3 3 4 3 4 2 3 3 2 2 2 2 2 3 4 3 3 4 5 3 3 3 4 4 4 9 10 11 10 11 11 12 11 12 11
4 4 3 4 5 6 4 3 0 2 3 1 1 3 1 1 1 2 3 3 3 3 3 3 5 3 3 3 1 2 2 4 4 4 1 2 4 3 3 3 3 4 3 6 6 7 10 9 10 7 9 9 8 9
2 4 3 4 4 3 1 3 0 1 1 2 1 1 2 2 2 2 2 2 3 4 5 4 3 3 5 3 2 2 1 2 3 2 2 1 1 3 3 3 3 3 5 5 5 7 9 8 7 9 10 11 12 11
2 4 3 3 1 3 2 2 1 2 3 4 3 2 1 1 3 1 1 3 3 3 3 5 5 3 4 4 3 3 5 1 2 2 1 1 2 2 3 3 3 3 3 5 5 7 8 8 7 9 9 11 11 11
1 1 1 1 2 3 2 1 2 3 1 1 1 2 1 1 5 1 0 2 4 4 4 4 5 5 6 6 5 3 3 3 3 0 1 2 2 2 3 3 3 3 4 4 5 5 7 7 6 8 10 10 10 10
Wind_Direction
124 119 119 115 114 108 106 106 105 101 100 99 94 92 89 94 121 75 98 25 124 96 351 41 33 36 18 94 124 158 69 341 37 76 137 247 253 272 307 333 333 327 319 284 213 276 292 185 179 143 212 236 270 305
120 119 115 106 108 110 108 104 102 102 99 95 93 91 85 85 74 78 78 300 22 85 137 80 68 46 47 47 110 69 149 145 169 111 343 22 329 282 276 263 307 296 54 229 176 232 306 132 195 245 123 186 241 272
112 108 106 108 110 105 102 105 106 104 102 99 92 83 79 84 77 92 119 2 59 84 39 51 76 36 46 50 62 119 1 48 79 151 158 209 229 74 295 278 334 294 322 279 14 238 274 292 136 138 156 219 293 306
109 109 113 110 111 109 105 107 102 99 96 91 82 66 56 76 74 71 81 326 78 119 110 262 200 67 41 52 59 67 111 34 85 77 119 166 175 222 243 241 260 226 313 262 265 279 287 310 226 206 60 347 315 326
108 108 108 111 106 107 110 105 102 97 93 86 75 69 57 56 76 77 64 26 30 119 136 164 80 54 124 67 93 103 103 107 87 6 112 234 243 291 261 253 269 193 187 220 233 265 190 280 334 274 83 300 299 288
108 109 112 112 116 113 108 105 101 97 83 79 74 65 57 41 31 64 43 355 355 5 94 110 193 157 109 176 175 195 203 195 165 150 237 241 212 89 288 270 226 299 274 269 192 56 225 323 321 36 49 334 1 338
112 113 110 110 105 104 103 102 98 91 94 90 76 63 80 78 66 70 124 238 326 3 73 68 91 229 176 175 213 133 188 246 152 239 226 215 246 161 196 254 268 281 276 138 107 76 353 38 338 333 44 21 360 12
112 109 109 105 104 100 99 99 109 111 107 107 102 93 87 104 111 43 353 335 341 30 53 91 155 118 230 193 44 335 50 30 307 220 311 253 304 170 248 250 255 235 60 89 32 176 202 277 326 43 31 16 8 359
106 105 103 104 103 105 105 118 118 119 121 119 112 106 117 29 54 244 296 315 312 120 102 86 180 203 244 184 145 316 135 235 235 196 225 119 229 226 228 241 256 98 135 142 94 71 77 79 52 38 20 355 339 308
105 105 107 110 108 107 119 119 111 127 151 151 100 58 40 37 192 239 355 31 19 331 23 112 354 249 113 157 258 103 165 229 213 220 150 187 249 239 221 240 115 135 103 108 134 98 65 53 47 331 293 276 321 22
104 103 105 105 106 119 111 97 131 195 209 205 79 83 186 173 96 41 64 68 345 21 230 239 139 158 295 114 234 185 216 227 259 248 162 228 256 235 186 118 104 109 123 132 120 114 123 254 265 270 286 48 65 42
106 108 109 110 106 99 97 70 343 33 24 120 117 90 86 75 36 73 188 229 203 183 195 128 193 167 268 99 93 284 221 21 248 144 209 274 324 65 105 117 134 129 142 130 164 203 212 245 286 359 19 49 52 11
102 102 104 104 104 102 84 67 55 17 317 44 55 64 67 323 56 144 190 234 112 88 116 76 335 156 18 36 272 315 264 236 316 78 221 15 14 44 41 51 32 6 16 348 49 31 23 20 13 25 336 325 323 310
99 97 96 96 90 78 65 49 29 347 33 82 116 108 155 167 265 180 77 53 243 89 85 133 156 158 191 135 214 252 250 321 289 247 72 76 64 106 97 88 109 63 56 17 7 6 325 324 305 294 271 266 261 263
103 108 111 104 102 84 58 14 329 288 108 102 105 135 191 241 42 64 74 30 343 354 26 20 345 122 268 248 225 266 281 255 239 42 98 164 232 223 228 115 80 43 17 352 323 321 314 296 242 269 281 268 245 239
117 120 186 157 161 136 340 320 311 296 81 68 204 31 313 55 325 30 22 337 329 316 324 86 250 335 235 215 205 222 254 270 71 35 84 52 33 25 23 15 34 16 328 302 310 319 323 334 301 296 292 306 314 333
153 87 132 138 142 120 358 300 144 82 108 276 260 95 96 70 33 332 8 249 318 320 239 143 215 226 230 227 237 218 208 200 149 185 190 151 183 235 234 303 330 322 338 10 360 347 329 323 341 340 333 315 261 287
5 69 107 148 186 150 227 255 304 142 225 221 155 213 160 161 185 276 285 276 196 242 1 249 310 270 244 260 308 7 41 39 44 20 300 279 272 158 93 10 294 289 296 292 291 296 302 313 316 298 295 323 341 333
36 71 56 43 15 294 196 178 10 307 245 244 292 279 171 190 192 191 197 230 224 225 106 335 256 226 234 48 80 174 136 92 294 276 272 267 83 91 252 253 256 268 261 264 282 289 280 314 313 302 354 17 340 9
65 74 38 14 5 308 254 134 145 316 298 256 190 224 212 199 203 184 200 210 189 121 200 222 225 239 141 120 43 335 197 225 255 319 320 77 173 229 268 282 353 348 332 331 360 0 356 339 348 3 349 355 10 338
177 96 83 328 209 265 313 321 188 198 233 226 255 219 245 216 187 190 222 183 152 205 229 217 161 96 99 141 141 135 291 27 14 139 255 311 305 329 333 341 360 323 349 17 335 322 359 309 21 350 322 323 322 293
59 279 159 184 317 295 320 279 280 320 336 271 326 254 283 273 231 226 195 157 220 205 178 128 139 143 154 147 233 194 163 166 277 273 320 9 357 324 306 311 7 318 300 275 299 296 284 344 353 355 4 300 307 315
307 206 281 185 321 353 270 324 294 268 239 264 256 244 249 247 210 80 258 216 213 58 122 112 132 108 265 179 215 230 225 199 349 37 359 336 334 310 311 308 301 324 316 302 322 348 354 3 9 340 327 328 320 313
224 320 301 204 186 246 177 279 255 274 301 309 255 264 284 272 5 221 240 233 121 149 102 130 118 307 287 238 245 125 145 170 219 255 44 7 341 325 14 1 344 324 6 29 26 20 358 340 336 328 306 301 304 304
125 259 158 224 233 189 208 211 233 247 210 201 310 305 295 70 257 251 237 197 152 145 147 148 183 228 228 260 357 97 48 40 50 37 5 43 27 4 348 335 325 313 346 45 345 328 305 308 299 293 302 299 302 302
224 226 181 198 210 190 196 198 198 207 211 206 255 249 64 20 278 247 244 138 147 157 172 169 185 298 354 51 53 86 77 53 43 38 44 28 2 262 269 308 311 352 19 13 354 310 312 306 306 308 305 299 295 296
243 231 191 228 208 174 254 249 191 148 183 202 236 145 139 216 240 247 167 14 115 68 94 84 75 71 61 83 81 69 60 64 89 138 270 289 294 2 57 29 6 339 327 318 304 292 315 315 312 311 307 304 301 301
232 257 197 198 207 190 163 190 185 219 217 217 138 175 194 206 236 213 129 154 110 94 96 92 83 79 78 75 80 63 33 38 357 13 4 2 25 73 51 346 300 326 319 312 308 296 303 303 302 306 307 307 305 300
237 239 139 150 128 206 219 187 213 226 211 152 164 206 234 180 172 138 173 136 108 102 108 127 103 96 114 139 140 133 116 99 68 359 351 311 341 318 326 318 330 342 326 316 315 318 326 323 318 311 306 301 300 301
241 186 187 146 171 216 231 190 266 13 3 28 271 340 11 61 82 89 102 118 132 175 177 126 132 125 139 128 112 349 26 77 89 117 137 277 260 279 329 349 319 306 310 313 327 324 319 321 311 317 321 328 334 335
201 157 197 162 221 211 158 97 207 200 238 281 0 153 249 336 297 207 139 123 118 117 122 113 106 133 128 136 165 107 39 286 140 157 125 229 318 311 314 298 288 309 322 326 318 322 317 325 329 339 342 347 348 356
174 200 167 201 169 113 164 208 225 234 216 197 223 193 119 67 268 201 225 103 106 117 154 138 145 192 150 119 114 110 137 152 60 109 73 340 293 309 313 296 298 302 307 325 327 318 329 338 350 350 352 354 360 8
147 197 100 56 180 193 140 116 235 258 207 228 295 44 35 171 247 197 352 127 151 158 158 157 115 111 120 119 122 133 184 156 166 199 109 17 44 317 300 299 298 305 352 333 325 334 341 347 2 357 358 2 10 14